[Iaude] MPEC N63: 2024 MQ2 [a=2.58,e=0.91,i=40.0,H=19.7]
    mpec at cfa.harvard.edu 
    mpec at cfa.harvard.edu
       
    Fri Jul  5 13:33:53 EDT 2024
    
    
  
M.P.E.C. 2024-N63                                  Issued 2024 July 5, 17:32 UT
     The Minor Planet Electronic Circulars contain information on unusual
         minor planets, routine data on comets and natural satellites,
         and occasional editorial announcements.  They are published
    on behalf of Division F of the International Astronomical Union by the
          Minor Planet Center, Smithsonian Astrophysical Observatory,
                          Cambridge, MA 02138, U.S.A.
			  
             Prepared using the Tamkin Foundation Computer Network
                              MPC at CFA.HARVARD.EDU
            URL https://www.minorplanetcenter.net/    ISSN 1523-6714
                                    2024 MQ2                                    
Observations:
     K24M02Q* C2024 06 30.48042020 28 16.560+65 41 53.44         20.96wXEN063F52
     K24M02Q  C2024 06 30.49164220 28 15.962+65 43 03.37         21.04wXEN063F52
     K24M02Q  C2024 06 30.50288820 28 15.396+65 44 13.90         21.18wXEN063F52
     K24M02Q  C2024 06 30.51412420 28 14.777+65 45 23.79         21.42wXEN063F52
     K24M02Q pC2024 06 30.89085320 27 59.90 +66 24 37.2          21.2 GVEN063L01
     K24M02Q pC2024 06 30.89254120 27 59.79 +66 24 47.9          21.1 GVEN063L01
     K24M02Q KC2024 06 30.89422820 27 59.60 +66 24 58.3          20.7 GVEN063L01
     K24M02Q IC2024 06 30.89717920 27 59.68 +66 25 16.6          21.0 GVEN063L01
     K24M02Q 6C2024 06 30.90516420 27 59.593+66 26 07.06         20.9 G EN063Z84
     K24M02Q 6C2024 06 30.93499520 27 58.072+66 29 16.14         20.9 G EN063Z84
     K24M02Q HB2024 06 30.99446 20 27 54.44 +66 35 32.0          21.5 GVEN063204
     K24M02Q KC2024 07 01.99598320 27 03.51 +68 21 39.1          21.2 GUEN063L06
     K24M02Q KC2024 07 02.00538620 27 02.88 +68 22 39.7          21.0 GUEN063L06
     K24M02Q KC2024 07 02.01400620 27 02.27 +68 23 35.5          21.0 GUEN063L06
     K24M02Q 7C2024 07 02.05364920 26 59.967+68 27 50.60         21.1 GVEN063Z84
     K24M02Q 7C2024 07 02.07313820 26 58.580+68 29 55.96         20.9 GVEN063Z84
     K24M02Q KC2024 07 02.26172120 26 48.06 +68 50 07.7          21.1 GVEN063H21
     K24M02Q KC2024 07 02.26731620 26 47.61 +68 50 43.7          21.1 GVEN063H21
     K24M02Q KC2024 07 02.27291020 26 47.14 +68 51 19.8          20.9 GVEN063H21
     K24M02Q KC2024 07 02.27617120 26 46.92 +68 51 40.8          20.7 GVEN063H21
     K24M02Q KB2024 07 04.97242 20 23 01.17 +73 47 16.1          21.4 GVEN063204
     K24M02Q HB2024 07 05.00018 20 22 57.70 +73 50 22.9                VEN063204
     K24M02Q 3C2024 07 05.39821820 22 10.549+74 35 03.59         21.29GVEN063T14
     K24M02Q 3C2024 07 05.39919920 22 10.415+74 35 10.27         21.18GVEN063T14
     K24M02Q 3C2024 07 05.40017920 22 10.276+74 35 16.95         21.26GVEN063T14
Observer details:
204 Schiaparelli Observatory.  Observer L. Buzzi.  0.84-m f/3.5 reflector +
    CMO.
F52 Pan-STARRS 2, Haleakala.  Observers J. Herman, T. Lowe, P. Minguez, A.
    Schultz, I. Smith.  Measurers K. Chambers, T. de Boer, J. Fairlamb, H.
    Gao, M. Huber, C.-C. Lin, E. Magnier, Y. Ramanjooloo, R. Wainscoat, R.
    Weryk.  1.8-m Ritchey-Chretien + CCD.
H21 Astronomical Research Observatory, Westfield.  Observer R. Holmes.
    Measurers T. Linder, R. Holmes, L. Horn.  0.76-m f/3.0 astrograph + CCD.
L01 Visnjan Observatory, Tican.  Observer K. Korlevic.  1.0-m f/2.9 reflector
    + CCD.
L06 Sormano 2 Observatory, Bellagio Via Lattea.  Observer G. Ventre.  Measurer
    P. Sicoli.  0.36m Schmidt Cassegrain + CCD.
T14 Canada-France-Hawaii Telescope, Maunakea.  Observers R. Wainscoat, H.
    Januszewski, H. Flewelling.  Measurers R. Weryk, R. Wainscoat.  3.6-m
    f/4.1 reflector + CCD.
Z84 Calar Alto-Schmidt.  Observers R. Kresken, F. Ocana, M. Micheli, L.
    Conversi.  Measurers R. Kresken, F. Ocana, M. Micheli.  0.8-m f/3
    Schmidt + CCD NET Gaia-DR2, 0.8-m f/3 Schmidt + CCD.
Orbital elements:
2024 MQ2                                                 Earth MOID = 0.4499 AU
Epoch 2024 Mar. 31.0 TT = JDT 2460400.5                 Bell                    
M 326.27858              (2000.0)            P               Q                  
n   0.23832049     Peri.  189.69731     +0.39030580     -0.73615864             
a   2.5764900      Node   239.42075     +0.88189315     +0.47142150             
e   0.9079714      Incl.   39.95983     +0.26443499     -0.48562560             
P   4.14           H   19.75          G   0.15           U   9                  
Residuals in seconds of arc
240630 F52  0.0   0.2+    240630 Z84  0.2-  0.1+    240702 H21  0.3-  0.0
240630 F52  0.0   0.1-    240630 204  0.5-  0.2-    240702 H21  0.2-  0.0
240630 F52  0.2+  0.1+    240701 L06  0.4+  0.5+    240704 204  0.2-  0.0
240630 F52  0.1+  0.2-    240702 L06  0.4+  0.6+    240705 204  0.2+  0.0
240630 L01  0.0   0.1+    240702 L06  0.2+  1.0+    240705 T14  0.1-  0.0
240630 L01  0.2-  0.1+    240702 Z84  0.2+  0.1-    240705 T14  0.1-  0.0
240630 L01  0.8-  0.2-    240702 Z84  0.1+  0.0     240705 T14  0.1-  0.1+
240630 L01  0.6+  0.6-    240702 H21  0.3+  0.2+
240630 Z84  0.1-  0.3+    240702 H21  0.0   0.1+
Ephemeris:
2024 MQ2                 a,e,i = 2.58, 0.91, 40                  q = 0.2371
Date    TT    R. A. (2000) Decl.     Delta      r    Elong.  Phase     V
2024 06 05    20 26 09.5 +32 17 10   0.9955  1.5964   105.1    37.8    22.3
...
2024 06 20    20 30 30.1 +49 23 08   0.7715  1.3723    99.4    46.9    21.6
...
2024 06 28    20 29 33.8 +61 29 37   0.6853  1.2435    91.8    54.8    21.4
...
2024 07 04    20 24 39.0 +71 59 06   0.6400  1.1418    83.8    62.3    21.3
2024 07 05    20 22 57.2 +73 50 10   0.6342  1.1244    82.3    63.7    21.3
2024 07 06    20 20 45.1 +75 42 43   0.6290  1.1068    80.8    65.1    21.3
...
2024 07 12    18 57 49.0 +87 13 28   0.6091  0.9984    70.8    74.0    21.3
...
2024 07 20    08 58 14.2 +76 13 31   0.6146  0.8446    56.1    86.8    21.4
...
2024 08 04    08 41 36.6 +46 35 34   0.7315  0.5223    29.5   106.9    21.6
M. P. C. Staff               (C) Copyright 2024 MPC           M.P.E.C. 2024-N63
    
    
More information about the Iaude
mailing list